K?chi Ry?ma Airport


Codes: RJOK/KCZ
Name: K?chi Ry?ma Airport
City: Nankoku
Country: Japan
Elevation: 42 ft.
Wikipedia:

Photos at K?chi Ry?ma Airport


   Photos courtesy of SpottingLog. You can add your own sightings and photos by signing up for a free trial today.



No photos found.

Weather at K?chi Ry?ma Airport


Time (UTC)DescriptionTempratureWindCloud coverageVisibilityPressureHumidity
25-Jun-2024 15:00Overcast Clouds22°C2 mph, N100%10000m1014hPa92%
25-Jun-2024 18:00Broken Clouds22°C2 mph, N81%10000m1014hPa91%
25-Jun-2024 21:00Broken Clouds22°C2 mph, NE70%10000m1015hPa89%
26-Jun-2024 00:00Overcast Clouds23°C2 mph, N85%10000m1016hPa87%
26-Jun-2024 03:00Overcast Clouds25°C2 mph, SW100%10000m1016hPa73%
26-Jun-2024 06:00Light Rain23°C2 mph, SW100%10000m1016hPa89%
26-Jun-2024 09:00Light Rain22°C0 mph, S100%10000m1016hPa92%
26-Jun-2024 12:00Light Rain22°C2 mph, SW100%10000m1017hPa94%
26-Jun-2024 15:00Moderate Rain21°C2 mph, NE100%10000m1016hPa96%
26-Jun-2024 18:00Light Rain21°C2 mph, NE100%5352m1015hPa97%
26-Jun-2024 21:00Moderate Rain21°C2 mph, SW100%5276m1017hPa98%
27-Jun-2024 00:00Light Rain22°C2 mph, SW100%6378m1017hPa97%
27-Jun-2024 03:00Light Rain22°C2 mph, S100%8909m1017hPa96%
27-Jun-2024 06:00Light Rain23°C4 mph, S100%10000m1016hPa93%
27-Jun-2024 09:00Light Rain23°C2 mph, E100%10000m1015hPa93%
27-Jun-2024 12:00Light Rain22°C2 mph, E100%10000m1016hPa94%
27-Jun-2024 15:00Light Rain22°C2 mph, S100%5735m1016hPa97%
27-Jun-2024 18:00Moderate Rain22°C4 mph, N100%0m1014hPa99%
27-Jun-2024 21:00Moderate Rain23°C2 mph, S100%105m1014hPa98%
28-Jun-2024 00:00Moderate Rain23°C2 mph, SE100%4865m1014hPa98%
28-Jun-2024 03:00Light Rain24°C2 mph, SE100%10000m1014hPa92%
28-Jun-2024 06:00Light Rain24°C2 mph, S100%10000m1013hPa91%
28-Jun-2024 09:00Light Rain24°C2 mph, S100%4971m1012hPa95%
28-Jun-2024 12:00Moderate Rain23°C2 mph, S100%3618m1012hPa95%
28-Jun-2024 15:00Moderate Rain23°C7 mph, S100%2804m1012hPa95%
28-Jun-2024 18:00Moderate Rain23°C7 mph, S100%1470m1010hPa97%
28-Jun-2024 21:00Light Rain23°C7 mph, SW97%7408m1011hPa94%
29-Jun-2024 00:00Light Rain25°C2 mph, E89%10000m1011hPa83%
29-Jun-2024 03:00Light Rain27°C4 mph, SE29%10000m1010hPa77%
29-Jun-2024 06:00Light Rain27°C4 mph, S28%10000m1010hPa78%
29-Jun-2024 09:00Light Rain26°C4 mph, E31%10000m1010hPa88%
29-Jun-2024 12:00Light Rain24°C4 mph, NE56%10000m1011hPa91%
29-Jun-2024 15:00Overcast Clouds23°C4 mph, N100%10000m1012hPa91%
29-Jun-2024 18:00Overcast Clouds23°C4 mph, N100%10000m1010hPa89%
29-Jun-2024 21:00Overcast Clouds24°C2 mph, NE100%10000m1011hPa87%
30-Jun-2024 00:00Light Rain26°C2 mph, S100%10000m1012hPa79%
30-Jun-2024 03:00Light Rain25°C2 mph, S100%10000m1012hPa87%
30-Jun-2024 06:00Light Rain25°C2 mph, E100%10000m1011hPa89%
30-Jun-2024 09:00Overcast Clouds24°C2 mph, E100%10000m1011hPa90%
30-Jun-2024 12:00Overcast Clouds24°C4 mph, NE100%10000m1012hPa89%